Location: Ajisawe
(8.4333°N, 4.3833°E)
Time: 13:45:42
(UTC+00:00)

Courier 1B Rocket - Pass Details

Date: 24 April 2021
Orbit: 920 x 1202 km, 28.2° (Epoch: 07 May)

Event Time Altitude Azimuth Distance (km) Brightness Sun altitude
Rises 03:12:31 0° 267° (W) 4,066 - -33.2°
Reaches altitude 10° 03:16:29 10° 249° (WSW) 3,122 - -32.3°
Maximum altitude 03:21:22 18° 209° (SSW) 2,589 - -31.2°
Exits shadow 03:25:49 11° 173° (S) 3,030 7.4 -30.2°
Drops below altitude 10° 03:26:15 10° 170° (S) 3,113 7.5 -30.1°
Sets 03:30:13 0° 152° (SSE) 4,050 8.3 -29.1°
